22P/Kopff (2022)

Japanese version
Home page
Updated on July 29, 2021

---------------------------------------------------------------------

* Profile

* Pictures

* Orbital Elements

Epoch 2022 Mar. 2.0 TT = JDT 2459640.5
T 2022 Mar. 18.06594 TT                                 Rudenko
q   1.5523778            (2000.0)            P               Q
n   0.15446325     Peri.  163.02113     +0.24028401     +0.96810347
a   3.4402178      Node   120.83152     -0.89992972     +0.24958055
e   0.5487560      Incl.    4.74211     -0.36385451     +0.02202756
P   6.38
From 4858 observations 1958 June 26-2021 Mar. 13, mean residual 0".8.
     Nongravitational parameters A1 = +0.12, A2 = -0.0856.

* Finding Charts

* Magnitudes Graph

        H = 14.5  G = 0.15               [    ,-525]  (             - 2020 Oct.  9)
        m1 = 5.3 + 5 log d + 21.0 log r  [-525, 550]  (2020 Oct.  9 - 2023 Sept.19)
        H = 14.5  G = 0.15               [ 550,    ]  (2023 Sept.19 -             )

---------------------------------------------------------------------

The orbital elements are published on M.P.E.C. 2021-F20.
The charts are made with StellaNavigator Ver.10 (AstroArts).
The magnitudes graphs are made with Comet for Windows.

---------------------------------------------------------------------

Copyright(C) Seiichi Yoshida (comet@aerith.net). All rights reserved.